Время (UTC), дата Ветер
(°,м/с) 
Видим.   Явления Облачность Т
(°С)
Тd
(°С)
f(%) Тe
(°С)
Pmin
(гПа)
dP
(гПа)
Po
(мм)
O2
(г/м3)
Тmin Tmax R s Состояние
почвы
00 05.12.13 250 (З) 2{10}  20000 м    ясно 
-3.9 -8.3 71 -5  1021.8  -0.6  724  297           
03 05.12.13 180 (Ю) 20000 м    1/0 верхняя 
[Ci fib]
-5.6 -9.2 76 -8  1020.7  -1.4  723  298  -6.2      равномерный
сухой снег
100% 
06 05.12.13 190 (Ю) 20000 м    1/0 верхняя 
[Ci fib]
-2.3 -10.2 55 -2  1019.5  -0.4  723  295           
09 05.12.13 170 (Ю) 20000 м    1/0 верхняя 
[Ci fib]
+3.8 -6.7 46 +3  1016.8  -0.4  722  287           
12 05.12.13 тихо ()   20000 м    8/0 средняя, верхняя 
[Ac trans|Ci fib]
+2 -6.3 54 +2  1016  -1.1  721  289           
15 05.12.13 280 (З) 20000 м    3/0 средняя 
[Ac trans]
-1.9 -6.8 69 -1  1016  -0.8  720  293    +4.6       
18 05.12.13 тихо ()   20000 м    3/0 средняя 
[Ac trans]
-1.4 -9.2 55 -1  1015.3  -0.5  720  292           
21 05.12.13 200 (Ю) 20000 м    ясно 
-1 -7 64 -3  1013.9  -1.2  719  291           
00 06.12.13 230 (ЮЗ) 20000 м    10/5 600 м кучево-дожд., средняя 
[Cb calv|Ac und]
+1.5 -3.1 71 -1  1013.6  0.2  719  288           
03 06.12.13 270 (З) 1700 м  ливневой снег  10/8 100 м кучево-дожд., средняя 
[Cb cap|Ac und]
+0.1 -0.9 93 -4  1014.7  0.8  720  290  -4    0.0     
06 06.12.13 280 (З) 5{12}  4000 м  слаб. ливневой снег  10/4 180 м кучево-дожд., средняя 
[Cb cap|Ac und]
-1 -2.4 90 -4  1017.2  2.1  721  292           
09 06.12.13 250 (З) 10 км  {ливн. осадки}  9/4 1000 м средняя 
[Sc|Ac As]
+0.5 -2.4 81 1016.8  0.1  721  290           
12 06.12.13 190 (Ю) 10 км  {ливн. осадки}  10/6 660 м средняя 
[Sc|Ac und]
+0.5 -1.6 86 -2  1015.9  -0.8  720  290           
15 06.12.13 140 (ЮВ) 20000 м    3/0 средняя 
[Ac trans]
+0 -2.2 85 -2  1015.4  -0.5  720  290    +1.4  0.4     
18 06.12.13 130 (ЮВ) 20000 м    6/0 средняя 
[Ac As]
-1.1 -2.6 90 -4  1014  -1.6  719  291           
21 06.12.13 130 (ЮВ) 20000 м    3/0 средняя 
[Ac trans]
+0 -2.8 81 -2  1012.6  -1.1  718  290           
00 07.12.13 160 (Ю) 1{10}  20000 м    3/0 средняя 
[Ac trans]
-1.5 -4.9 78 -1  1012.3  -0.5  718  291           
03 07.12.13 150 (ЮВ) 20000 м    3/0 средняя 
[Ac trans]
-0.5 -6.4 64 -3  1010.7  -1.4  717  290  -2.1      неравномерный
мокрый или
старый снег
100% 
06 07.12.13 150 (ЮВ) 20000 м    9/0 средняя, верхняя 
[Ac trans|Ci fib]
+0.3 -6.3 61 -3  1009.6  -0.8  716  289           
09 07.12.13 150 (ЮВ) 20000 м    9/0 средняя, верхняя 
[Ac trans|Ci fib]
+0.3 -6.3 61 -3  1009.6  -0.8  716  289           
12 07.12.13 300 (СЗ) 20000 м    3/0 верхняя 
[Ci fib]
+5 -2.4 59 +3  1007.8  0.2  715  283           
15 07.12.13 090 (В) 20000 м    9/0 верхняя 
[Ci]
+0.8 -1.9 82 1008.5  0.1  715  287    +8.7       
18 07.12.13 тихо ()   20000 м    8/3 600 м средняя 
[Sc|Ac As]
+0.3 -2.1 84 1007.6  -0.9  715  288           
21 07.12.13 300 (СЗ) 20000 м    10/3 600 м средняя 
[Sc|Ac und]
+1.7 -0.9 83 -1  1006.9  -0.4  714  286           
00 08.12.13 290 (З) 8-12  1600 м  метель{ливн. осадки}  10/10 210 м кучево-дожд. 
[Cb cap]
-0.9 -1.7 94 -5  1009.3  1.7  716  289           
03 08.12.13 250 (З) 10 км  слаб. ливневой снег  10/8 200 м кучево-дожд., средняя 
[Cb cap|Ac und]
-1.2 -2.5 91 -5  1011.2  1.7  717  290  -1.4    0.4     
06 08.12.13 260 (З) 6{10}  20000 м  {ливн. осадки}  10/8 270 м кучево-дожд., средняя 
[Cb calv|Ac und]
-0.8 -2.5 88 -4  1013.3  718  291           
09 08.12.13 260 (З) 5{10}  20000 м    8/8 540 м 
[Sc diur, vesp]
-0.1 -3.4 78 -3  1013.7  0.5  719  290           
12 08.12.13 260 (З) 6{10}  20000 м    8/8 540 м 
[Sc]
-0.1 -3.8 76 -4  1013.9  0.2  719  290           
15 08.12.13 250 (З) 20000 м    4/3 600 м средняя 
[Sc|Ac trans]
-2.1 -4.7 82 -5  1015.6  1.3  720  293      0.0    замёрзшая 
18 08.12.13 260 (З) 20000 м    3/0 средняя 
[Ac trans]
-4.8 -6 91 -7  1016.3  1.3  720  296           
21 08.12.13 230 (ЮЗ) 20000 м    8/0 средняя 
[Ac trans]
-2.5 -4.7 85 -5  1016.9  721  294           
00 09.12.13 270 (З) 10 км  слаб. ливневой снег  10/8 240 м кучево-дожд., средняя 
[Cb cap|Ac und]
-2 -3.3 91 -6  1017.8  721  293           
03 09.12.13 270 (З) 20000 м  {ливн. осадки}  9/6 300 м средняя 
[St|Ac As]
-2.5 -4.4 87 -6  1018.1  -0.1  722  294  -5.2    0.0     
06 09.12.13 250 (З) 6{12}  10 км  слаб. ливневой снег  10/6 660 м кучево-дожд., средняя 
[Cb cap|Ac und]
-2.8 -5.6 81 -7  1019.5  1.3  722  295           
09 09.12.13 270 (З) 8-13  20000 м  в посл. час ливневой снег  8/5 450 м кучево-дожд., средняя 
[Cb cap|Ac As]
-2 -5.3 78 -7  1019.3  722  294           
12 09.12.13 260 (З) 8-11{13}  4000 м  слаб. ливневой снег  6/4 300 м кучево-дожд., средняя 
[Cb cap|Ac trans]
-2.8 -4.7 87 -8  1019  -0.4  722  294           
15 09.12.13 250 (З) 20000 м  позёмок{ливн. осадки}  1/1 600 м 
[Sc diur, vesp]
-3.3 -6.7 77 -8  1018.6  -0.5  722  295    -1.6  0.4     
18 09.12.13 230 (ЮЗ) 5{11}  20000 м  {ливн. осадки}  8/5 1000 м средняя 
[Sc|Ac und]
-2.8 -6.3 77 -6  1016.7  -1.7  720  294           
21 09.12.13 160 (Ю) 20000 м  {ливн. осадки}  10/3 1000 м кучево-дожд., средняя 
[Cb cap|Ac und]
-3.6 -5.9 84 -6  1014  -2.7  718  294           
00 10.12.13 170 (Ю) 20000 м  {ливн. осадки}  8/3 1000 м кучево-дожд., средняя 
[Cb calv|Ac und]
-4.5 -7.9 77 -7  1010.7  -3.2  716  294           
03 10.12.13 160 (Ю) 20000 м    4/3 1000 м кучево-дожд., средняя 
[Cb calv|Ac trans]
-3.2 -9.7 61 -7  1006.3  -4  713  292  -4.5    0.0  равномерный
сухой снег
100% 
06 10.12.13 130 (ЮВ) 6-10{10}  20000 м    9/4 600 м кучево-дожд., средняя 
[Cb calv|Ac trans]
-1.8 -8.6 60 -6  1002.7  -4  711  289           
09 10.12.13 260 (З) 11-16  10 км  слаб. ливневой снег  10/6 570 м кучево-дожд., средняя 
[Cb cap|Ac und]
+0.9 -2.5 78 -4  1002.9  0.8  711  286           
12 10.12.13 270 (З) 6-11  1500 м  ливневой снег  10/8 150 м кучево-дожд., средняя 
[Cb cap|Ac und]
-1 -1.9 93 -5  1005.3  1.9  713  288           
15 10.12.13 290 (З) 0900 м  метель{ливн. осадки}  10/8 100 м кучево-дожд., средняя 
[Cb cap|Ac und]
-5.5 -6.8 90 -11  1011.1  4.6  716  295    +2.7     
18 10.12.13 290 (З) 8-13  1100 м  метель{ливн. осадки}  10/8 240 м кучево-дожд., средняя 
[Cb cap|Ac As]
-8.2 -9.8 88 -14  1016.8  4.8  720  300           
21 10.12.13 280 (З) 8-12{14}  1300 м  метель{ливн. осадки}  10/8 120 м кучево-дожд., средняя 
[Cb cap|Ac und]
-9.4 -10.8 90 -16  1020  2.7  722  302           
00 11.12.13 270 (З) 6{12}  1500 м  метель{ливн. осадки}  10/8 150 м кучево-дожд., средняя 
[Cb cap|Ac und]
-10.1 -11.9 87 -15  1021.4  1.2  723  303           
03 11.12.13 270 (З) 2500 м  слаб. ливневой снег  10/8 200 м кучево-дожд., средняя 
[Cb cap|Ac und]
-9.8 -11.9 85 -15  1021.9  0.5  723  303  -10.3    0.5     
06 11.12.13 300 (СЗ) 1500 м  ливневой снег  10/8 150 м кучево-дожд., средняя 
[Cb cap|Ac und]
-10.4 -12.4 85 -16  1023  0.9  724  304  -10.4         
09 11.12.13 290 (З) 6-10  3000 м  слаб. ливневой снег  6/6 240 м кучево-дожд. 
[Cb cap]
-11.8 -14.6 80 -17  1023.5  0.1  724  306           
12 11.12.13 290 (З) 8-14  2000 м  метель{ливн. осадки}  5/5 450 м кучево-дожд. 
[Cb cap]
-12.8 -15.5 80 -20  1023.8  -0.1  724  307           
15 11.12.13 260 (З) 4000 м  метель{ливн. осадки}  3/3 300 м кучево-дожд. 
[Cb cap]
-13.6 -15.9 83 -21  1025.5  1.4  725  309    -9.8  0.6     
18 11.12.13 260 (З) 7{12}  20000 м  позёмок{ливн. осадки}  5/5 150 м 
[St]
-13.2 -15.5 82 -20  1026.3  0.9  726  309           
21 11.12.13 260 (З) 8-11{12}  20000 м  позёмок  9/6 270 м средняя 
[St|Ac As]
-12.7 -15 83 -20  1026.4  0.2  726  308           
00 12.12.13 260 (З) 8-10{13}  10 км  позёмок{ливн. осадки}  4/4 200 м 
[St]
-12.8 -15.1 83 -20  1026.2  -0.2  726  308           
03 12.12.13 260 (З) 20000 м    3/0 средняя 
[Ac trans]
-13.6 -15.6 85 -19  1026.8  0.4  726  309  -13.6    0.0     
06 12.12.13 250 (З) 20000 м    10/0 средняя 
[Ac und]
-12.1 -14.7 81 -16  1027.7  1.2  727  308           
09 12.12.13 350 (С) 20000 м  в посл. час снег  5/3 300 м средняя 
[Sc|As op]
-9.6 -14 71 -9  1026.7  -0.5  726  305           
12 12.12.13 070 (В) 20000 м  {снег}  8/8 360 м 
[St]
-11 -14 79 -13  1026.7  -0.3  726  306           
15 12.12.13 070 (В) 20000 м  {снег}  8/5 300 м средняя 
[St|As op]
-14.3 -15.9 87 -18  1028  0.4  727  310    -9.2  0.0     
18 12.12.13 080 (В) 20000 м  {снег}  3/0 средняя 
[Ac trans]
-15.1 -16.9 86 -20  1028  0.1  727  311           
21 12.12.13 090 (В) 20000 м    3/3 600 м 
[Sc]
-14.1 -16.1 84 -18  1027.8  0.1  727  310           
00 13.12.13 110 (В) 20000 м    3/3 300 м 
[Sc]
-14.5 -16.3 86 -18  1027.8  -0.1  726  310           
03 13.12.13 160 (Ю) 20000 м    4/4 200 м 
[St]
-15.4 -17.3 85 -18  1027.5  -0.5  726  311  -15.4      неравномерный
сухой снег
100% 
06 13.12.13 150 (ЮВ) 20000 м    3/0 средняя 
[Ac trans]
-10.4 -11.9 89 -13  1026.8  0.5  726  305           
09 13.12.13 140 (ЮВ) 20000 м    3/0 средняя 
[Ac trans]
-6.6 -9.2 82 -11  1024.6  -1.3  725  300           
12 13.12.13 130 (ЮВ) 20000 м    3/0 средняя 
[Ac trans]
-5.2 -9.3 73 -8  1023.1  -1.2  725  298           
15 13.12.13 150 (ЮВ) 20000 м    3/0 верхняя 
[Ci fib]
-8.6 -11.5 79 -8  1023  -1.2  724  302    -4.5       
18 13.12.13 250 (З) 20000 м    3/0 верхняя 
[Ci fib]
-7.7 -14.6 58 -11  1022.1  -0.7  724  301           
21 13.12.13 240 (ЮЗ) 20000 м    3/0 верхняя 
[Ci fib]
-3.5 -8.2 70 -8  1020.6  -0.5  723  296           
00 14.12.13 230 (ЮЗ) 20000 м    10/0 средняя, верхняя 
[Ac trans|Ci]
-2.2 -6.2 74 -7  1019  -1.3  722  294           
03 14.12.13 250 (З) 10-13{15}  20000 м  позёмок  6/3 1000 м средняя 
[Sc|Ac trans]
-1.8 -5.4 76 -7  1017.4  -1.4  721  293  -7.7      неравномерный
сухой снег
100% 
06 14.12.13 270 (З) 13-17{20}  20000 м  позёмок  6/3 300 м средняя 
[Sc|Ac trans]
-1.9 -4.6 82 -8  1017.3  0.1  721  293           
09 14.12.13 260 (З) 17-24{26}  10 км  позёмок  8/3 600 м кучево-дожд., средняя 
[Cb calv|Ac trans]
+1.4 -4.3 66 -5  1015.8  -0.8  720  289           
12 14.12.13 260 (З) 13-17{24}  20000 м  позёмок  9/4 600 м кучево-дожд., средняя 
[Cb calv|Ac trans]
+1.1 -3.7 70 -4  1014.4  -1.4  719  289           
15 14.12.13 280 (З) 12-18{19}  1500 м  метель{ливн. осадки}  10/8 210 м кучево-дожд., средняя 
[Cb cap|Ac und]
-0.1 -1.3 92 -6  1015.3  0.6  720  290    +1.4  0.0     
18 14.12.13 290 (З) 7-10{18}  0900 м  ливневой снег  ?/?  
-1.8 -2.7 94 -6  1017.1  1.4  721  293           
21 14.12.13 300 (СЗ) 8-12{14}  2500 м  слаб. ливневой снег  10/8 240 м кучево-дожд., средняя 
[Cb cap|Ac und]
-3.2 -5 87 -8  1019.6  722  295           
00 15.12.13 310 (СЗ) 5{12}  10 км  {ливн. осадки}  10/6 540 м кучево-дожд., средняя 
[Cb calv|Ac und]
-4.5 -7.1 82 -8  1022.3  2.3  724  297           
03 15.12.13 280 (З) 6-10{11}  20000 м  в посл. час ливневой снег  8/6 400 м кучево-дожд., средняя 
[Cb calv|Ac trans]
-5.8 -7.4 88 -10  1023.8  1.1  725  299  -5.8    неравномерный
сухой снег
100% 
06 15.12.13 280 (З) 7-11{13}  20000 м  позёмок{ливн. осадки}  3/3 300 м 
[Sc diur, vesp]
-7.4 -9.5 85 -13  1025.9  1.7  726  302  -7.5         
09 15.12.13 280 (З) 8-12{13}  20000 м  позёмок  3/3 300 м 
[St]
-6.1 -9.1 79 -12  1027  1.3  727  301           
12 15.12.13 280 (З) 9-12{14}  20000 м  позёмок  8/8 570 м 
[Sc]
-6 -9.7 75 -12  1028.7  1.3  728  301           
15 15.12.13 280 (З) 6{12}  20000 м  позёмок  3/3 600 м 
[Sc]
-7.4 -9.7 83 -12  1031.4  2.2  730  303    -5.5       
18 15.12.13 280 (З) 20000 м    3/0 средняя 
[Ac trans]
-8.6 -10.4 87 -13  1033.2  1.5  731  305           
21 15.12.13 290 (З) 20000 м    8/0 средняя 
[Ac As]
-8.2 -11.6 76 -13  1033.6  0.5  732  305           
00 16.12.13 250 (З) 20000 м    10/0 средняя 
[Ac und]
-7.3 -11.1 74 -12  1034.4  0.9  732  304           
03 16.12.13 270 (З) 20000 м    9/0 средняя 
[Ac trans]
-7.5 -9.9 83 -10  1035  0.9  733  304  -9      неравномерный
сухой снег
100% 
06 16.12.13 290 (З) 20000 м    8/0 средняя 
[Ac trans]
-7.3 -9.3 86 -9  1036.2  1.2  734  305           
09 16.12.13 260 (З) 20000 м    8/0 верхняя 
[Ci fib]
-2.4 -9.2 60 -2  1035.5  0.3  734  299           
12 16.12.13 040 (СВ) 20000 м    8/0 средняя 
[Ac trans]
-4.6 -12.8 53 -6  1036.2  0.2  734  302           
15 16.12.13 100 (В) 20000 м    3/0 средняя 
[Ac trans]
-9.6 -11.4 87 -11  1038.6  1.2  735  308    -2.4       
18 16.12.13 190 (Ю) 20000 м    ясно 
-11.7 -15.2 75 -14  1039.2  0.1  735  311           
21 16.12.13 150 (ЮВ) 20000 м    ясно 
-8.4 -15.3 57 -10  1038.8  0.3  735  307           
00 17.12.13 150 (ЮВ) 20000 м    ясно 
-9.2 -14.9 63 -12  1038.8  -0.2  735  308           
03 17.12.13 170 (Ю) 20000 м    ясно 
-8.5 -16.7 52 -8  1038.6  735  307  -11.7      неравномерный
сухой снег
100% 
06 17.12.13 320 (СЗ) 20000 м    1/0 средняя 
[Ac trans]
-7.9 -15.4 55 -8  1039.5  736  307  -12.4         
09 17.12.13 тихо ()   20000 м    ясно 
-0.9 -16.7 29 -1  1036.8  -1.1  735  298           
12 17.12.13 350 (С) 20000 м    ясно 
-3.8 -13.8 46 -5  1037.5  -0.1  735  302           
15 17.12.13 220 (ЮЗ) 20000 м    ясно 
-7.3 -13.5 61 -9  1038  -0.3  735  305    -0.9       
18 17.12.13 290 (З) 20000 м    ясно 
-6.2 -24 23 -8  1037.5  -0.3  735  304           
21 17.12.13 230 (ЮЗ) 20000 м    ясно 
-8.4 -21.8 33 -12  1037.1  -0.3  734  307           
00 18.12.13 250 (З) 20000 м    ясно 
-4.3 -21.3 25 -7  1034.9  -1.2  733  302           
03 18.12.13 260 (З) 20000 м    ясно 
-1.9 -23.5 17 -6  1032.8  -1.5  732  299  -8.9      неравномерный
сухой снег
100% 
06 18.12.13 240 (ЮЗ) 20000 м    1/0 средняя 
[Ac trans]
-1.3 -16.7 30 -5  1032.6  732  298           
09 18.12.13 260 (З) 7{10}  20000 м    ясно 
+1.8 -9.6 42 -2  1030.5  -1.4  731  293           
12 18.12.13 270 (З) 6-10{10}  20000 м    ясно 
+1.4 -7.7 51 -2  1029.5  -1  730  293           
15 18.12.13 250 (З) 5{10}  20000 м    ясно 
-0.7 -6 67 -4  1029.6  -0.3  730  295    +2.5       
18 18.12.13 260 (З) 20000 м    ясно 
-0.4 -5.2 70 -3  1028.8  -0.7  729  295           
21 18.12.13 260 (З) 20000 м    ясно 
-0.5 -5.1 71 -4  1028  -0.8  729  295           
00 19.12.13 270 (З) 20000 м    ясно 
-0.8 -4.6 75 -4  1027.7  -0.3  729  295           
03 19.12.13 260 (З) 20000 м    6/6 210 м 
[St]
-1.8 -3.2 90 -6  1027.6  -0.4  728  296  -1.8      мокрый или
старый снег
50-90% 
06 19.12.13 260 (З) 20000 м    6/4 200 м средняя 
[St|Ac trans]
-2 -3.7 88 -5  1028.3  0.7  729  296  -3         
09 19.12.13 270 (З) 6{10}  0600 м  туман  ?/?  
-1.8 -2.5 95 -6  1028.1  -0.2  729  296           
12 19.12.13 280 (З) 5{10}  2000 м  дымка{туман}  10/10 100 м 
[St]
-1.5 -2.1 96 -5  1028.1  -0.1  729  295           
15 19.12.13 270 (З) 4{10}  2000 м  дымка  10/10 150 м 
[St]
-2 -2.6 96 -5  1029.1  0.8  729  296    -1.4       
18 19.12.13 280 (З) 10 км    10/10 150 м 
[St]
-1.9 -2.8 94 -5  1029.7  0.6  730  296           
21 19.12.13 260 (З) 10 км    10/10 180 м 
[St]
-2.1 -3.1 93 -5  1030.4  0.7  730  297           
00 20.12.13 270 (З) 2000 м  дымка  10/10 100 м 
[St]
-2.6 -3.2 96 -5  1031.3  0.7  731  298           
03 20.12.13 270 (З) 0600 м  туман  ?/?  
-2.3 -2.9 96 -3  1032  0.7  731  297  -2.6      мокрый или
старый снег
50-90% 
06 20.12.13 270 (З) 2000 м  дымка{туман}  10/10 150 м 
[St]
-2.6 -3.2 96 -5  1033.1  732  298           
09 20.12.13 290 (З) 10 км  [диам. гололёда 0 мм]  10/10 210 м 
[St]
-1.8 -2.8 93 -4  1032.9  732  297           
12 20.12.13 270 (З) 0500 м  туман [диам. гололёда 0 мм]  ?/?  
-2 -2.6 96 -5  1032.9  -0.1  732  297           
15 20.12.13 270 (З) 2000 м  дымка [диам. гололёда 0 мм]  10/10 120 м 
[St]
-3 -3.7 95 -6  1034.3  1.1  733  299    -1.7       
18 20.12.13 290 (З) 2000 м  дымка [диам. гололёда 0 мм]  10/10 100 м 
[St]
-4 -4.6 95 -5  1034.7  0.2  733  300           
21 20.12.13 350 (С) 0400 м  туман [диам. гололёда 0 мм]  н/о 
-4.5 -5.2 95 -4  1035.2  0.4  733  301           
00 21.12.13 190 (Ю) 0200 м  переохл. туман [диам. сложн. отлож. 1 мм]  ?/?  
-4.8 -5.6 94 -4  1035.6  0.4  734  301           
03 21.12.13 170 (Ю) 1400 м  дымка{туман} [диам. сложн. отлож. 3 мм]  10/10 60 м 
[St]
-5 -5.8 94 -6  1035.5  -0.2  733  302  -5.3      мокрый или
старый снег
50-90% 
06 21.12.13 160 (Ю) 20000 м  {туман} [диам. сложн. отлож. 3 мм]  10/8 720 м средняя 
[Sc|Ac und]
-3.9 -4.6 95 -5  1035.2  733  300           
09 21.12.13 170 (Ю) 10 км  [диам. сложн. отлож. 1 мм]  10/8 750 м средняя 
[Sc|Ac und]
-1.8 -2.8 93 -1  1033.6  -1.1  733  297           
12 21.12.13 200 (Ю) 20000 м    10/8 870 м средняя 
[Sc|Ac und]
+0.2 -2.1 85 -1  1032  -1.1  732  295           
15 21.12.13 200 (Ю) 20000 м    10/8 870 м средняя 
[Sc|Ac und]
+1 -1.1 86 -1  1031  -0.7  731  294    +1.1       
18 21.12.13 190 (Ю) 20000 м    10/8 700 м средняя 
[Sc|Ac und]
+1.7 -1 82 1029.3  -1.5  730  292           
21 21.12.13 270 (З) 7-10{10}  20000 м    10/6 300 м кучево-дожд., средняя 
[Cb cap|Ac und]
+2.6 -0.2 82 -1  1028.7  -0.4  730  291           
00 22.12.13 270 (З) 10-15{15}  20000 м  в посл. час ливневой дождь  10/5 800 м кучево-дожд., средняя 
[Cb calv|Ac und]
+2.5 -0.9 78 -2  1028  -0.6  729  291           
03 22.12.13 280 (З) 11-17{18}  2000 м  дымка{туман}  10/10 150 м 
[St]
+0.1 -0.7 94 -5  1029.9  1.3  730  294  +0.1    0.0  мокрый или
старый снег
50-90% 
06 22.12.13 280 (З) 9-13{17}  4000 м  дымка{туман}  10/8 270 м средняя 
[St|Ac und]
-0.5 -1.9 90 -5  1032.9  2.7  732  296  -0.5         
09 22.12.13 280 (З) 6{13}  10 км    9/6 450 м средняя 
[Sc|Ac As]
+0.2 -2 85 -3  1033.9  1.1  733  295           
12 22.12.13 260 (З) 7-10{11}  10 км    8/8 420 м 
[Sc]
-0.1 -2.2 86 -4  1033.9  733  296           
15 22.12.13 260 (З) 5{12}  10 км    5/5 330 м 
[St]
-1.7 -3 91 -5  1034.7  0.4  733  298    +0.4       
18 22.12.13 270 (З) 5{11}  20000 м    10/10 210 м 
[St]
-1.1 -2.6 90 -4  1035.1  0.5  734  297           
21 22.12.13 260 (З) 6{11}  20000 м    3/0 средняя 
[Ac trans]
-1.6 -3.3 88 -5  1034.4  -0.8  733  298           
00 23.12.13 260 (З) 6{10}  20000 м    ясно 
-0.6 -3.7 79 -4  1033.4  -0.7  733  296           
03 23.12.13 260 (З) 7{10}  20000 м    4/4 300 м 
[St]
+1 -0.8 88 -3  1032.5  -0.4  732  294  -1.8      мокрый или
старый снег
50-90% 
06 23.12.13 250 (З) 20000 м    3/0 средняя 
[Ac trans]
+1.3 -0.4 88 -1  1032.5  732  294           
09 23.12.13 280 (З) 20000 м    1/0 верхняя 
[Ci fib]
+4.1 -0.1 74 +2  1031  -0.8  732  290           
12 23.12.13 270 (З) 5{10}  10 км    10/10 270 м 
[St]
+2.1 -0 86 -1  1030.8  -0.6  731  292           
15 23.12.13 220 (ЮЗ) 20000 м    3/0 средняя 
[Ac trans]
+0.3 -0.8 92 -1  1031.2  731  294    +4.3       
18 23.12.13 270 (З) 10 км    8/8 330 м 
[St]
+2.4 +0.6 88 1030.9  0.1  731  292           
21 23.12.13 280 (З) 20000 м    1/0 средняя 
[Ac trans]
+1.9 +0.2 89 1030.4  0.1  731  292           
00 24.12.13 240 (ЮЗ) 10 км    6/6 330 м 
[St]
+0.7 -0.4 92 -1  1031.1  0.4  731  294           
03 24.12.13 290 (З) 10 км    10/10 600 м 
[Sc diur, vesp]
+1.7 +0.5 92 +2  1030.7  -0.2  731  293  -1.1      <0.5  мокрый или
старый снег
50-90% 
06 24.12.13 200 (Ю) 10 км    10/10 600 м 
[Sc]
+1.4 +0.3 92 +1  1031.8  732  293           
09 24.12.13 280 (З) 20000 м    8/8 600 м 
[Sc]
+4 -0.6 72 +2  1031.9  0.6  732  291           
12 24.12.13 260 (З) 20000 м    1/0 средняя 
[Ac trans]
+4.1 -1 69 +2  1031.7  -0.2  732  291           
15 24.12.13 250 (З) 20000 м    ясно 
+0.3 -2 84 -1  1033.8  1.2  733  295    +4.4       
18 24.12.13 240 (ЮЗ) 20000 м    ясно 
-1.1 -2.9 87 -2  1034.3  0.2  733  297           
21 24.12.13 260 (З) 20000 м    ясно 
-0.4 -2.3 87 -2  1034.6  0.4  734  296           
00 25.12.13 280 (З) 20000 м    ясно 
-0.5 -1.7 92 -1  1034.9  0.3  734  296           
03 25.12.13 160 (Ю) 20000 м    ясно 
-0.9 -1.6 95 1034.5  -0.5  733  297  -2.8         
06 25.12.13 150 (ЮВ) 20000 м    3/0 верхняя 
[Ci fib]
+1.2 -0.5 88 +1  1034.5  0.5  734  294           
09 25.12.13 120 (ЮВ) 20000 м    ясно 
+4.2 +0.6 77 +3  1033  -0.9  733  291           
12 25.12.13 120 (ЮВ) 20000 м    ясно 
+4.6 +0.6 75 +3  1031.6  -1.3  732  290           
15 25.12.13 120 (ЮВ) 20000 м    ясно 
+0.7 -0.6 91 -1  1032.8  0.4  732  294    +4.7       
18 25.12.13 150 (ЮВ) 10 км    ясно 
-0.2 -1.2 93 -3  1032.4  -0.5  732  295           
21 25.12.13 120 (ЮВ) 10 км    ясно 
-1.5 -2.6 92 -4  1031.2  -1.4  731  296           
00 26.12.13 130 (ЮВ) 10 км    ясно 
-2.1 -3.4 91 -5  1030.3  -0.9  730  297           
03 26.12.13 110 (В) 20000 м    ясно 
-3.4 -4.4 93 -6  1029.9  -0.7  730  298  -3.5         
06 26.12.13 140 (ЮВ) 20000 м    3/0 средняя 
[Ac trans]
-1.7 -3.7 86 -5  1029.3  -0.2  730  296  -3.5         
09 26.12.13 080 (В) 20000 м    3/0 верхняя 
[Ci fib]
+0.5 -1.3 88 -3  1027.7  -1  729  293           
12 26.12.13 110 (В) 9-12{12}  20000 м    3/0 верхняя 
[Ci fib]
+1 -1.7 82 -3  1026.5  -1.1  728  292           
15 26.12.13 130 (ЮВ) 10 км    5/5 150 м 
[St]
-1.2 -1.9 95 -4  1027.6  0.7  728  295    +1.9       
18 26.12.13 140 (ЮВ) 9-12{13}  10 км    10/10 150 м 
[St]
+0.2 -0.7 94 -4  1027.1  -0.2  728  293           
21 26.12.13 130 (ЮВ) 9-12{12}  20000 м  дымка  10/10 120 м 
[St]
-0.1 -0.9 94 -5  1027  -0.2  728  294           
00 27.12.13 130 (ЮВ) 6{13}  3000 м  дымка  10/10 120 м 
[St]
-0.4 -1.2 94 -4  1027.8  -0.2  729  294           
03 27.12.13 130 (ЮВ) 6{10}  2000 м  дымка  10/10 120 м 
[St]
-0.7 -1.3 96 -4  1027.7  -0.2  729  294  -1.3      <0.5  мокрый или
старый снег
10-40% 
06 27.12.13 140 (ЮВ) 7-10  3000 м  дымка  10/10 180 м 
[St]
-0.1 -0.8 95 -4  1028.1  0.4  729  294           
09 27.12.13 130 (ЮВ) 9-14  4000 м  дымка  9/9 240 м 
[St]
+1.8 +0.1 88 -2  1027  -0.6  728  292           
12 27.12.13 140 (ЮВ) 7-10  4000 м  дымка  10/10 240 м 
[St]
+1.2 -0.2 90 -2  1027.1  -0.1  729  292           
15 27.12.13 130 (ЮВ) 4000 м  дымка  8/8 100 м 
[St]
+0.5 -0.4 94 -3  1027.9  -0.1  729  293    +1.8       
18 27.12.13 130 (ЮВ) 6{10}  10 км    3/3 300 м 
[St]
+0.2 -0.7 94 -3  1028.3  0.3  729  294           
21 27.12.13 120 (ЮВ) 4000 м  дымка  4/4 200 м 
[St]
-0.7 -1.3 96 -4  1028.4  729  295           
00 28.12.13 120 (ЮВ) 0100 м  туман  ?/?  
-1.1 -1.6 96 -4  1028.5  729  295           
03 28.12.13 130 (ЮВ) 0100 м  туман  ?/?  
-1.4 -1.9 96 -3  1028.5  0.1  729  295  -1.4      <0.5  мокрый или
старый снег
10-40% 
06 28.12.13 120 (ЮВ) 0100 м  туман [диам. гололёда 4 мм]  ?/?  
-1.7 -2.2 96 -4  1029  0.4  729  296  -1.8         
09 28.12.13 120 (ЮВ) 0100 м  туман [диам. гололёда 1 мм]  ?/?  
-0.1 -0.6 97 -1  1027.9  -0.7  729  294           
12 28.12.13 110 (В) 0200 м  туман [диам. гололёда 0 мм]  ?/?  
-0.1 -0.6 97 -1  1027.4  -0.5  728  294           
15 28.12.13 120 (ЮВ) 0050 м  туман [диам. гололёда 1 мм]  ?/?  
-0.9 -1.3 97 -2  1027.5  728  295    +0.3       
18 28.12.13 120 (ЮВ) 0100 м  туман [диам. гололёда 3 мм]  ?/?  
-1.9 -2.3 97 -3  1027.1  -0.5  728  296           
21 28.12.13 140 (ЮВ) 0100 м  туман [диам. гололёда 5 мм]  ?/?  
-2.5 -3.1 96 -4  1026.4  -0.8  727  296           
00 29.12.13 тихо ()   0100 м  туман [диам. гололёда 5 мм]  ?/?  
-3.3 -3.9 96 -3  1026.4  -0.2  727  297           
03 29.12.13 тихо ()   0100 м  туман  ?/?  
-3.5 -4.1 96 -4  1026.2  -0.2  727  297  -4      <0.5  мокрый или
старый снег
10-40% 
06 29.12.13 тихо ()   0100 м  туман [диам. гололёда 10 мм]  ?/?  
-3.3 -3.9 96 -3  1026.5  0.3  727  297           
09 29.12.13 тихо ()   0100 м  туман [диам. гололёда 14 мм]  ?/?  
-3 -3.7 95 -3  1025.9  -0.5  727  297           
12 29.12.13 тихо ()   0100 м  переохл. туман [диам. сложн. отлож. 15 мм]  ?/?  
-2.9 -3.6 95 -3  1025.6  -0.5  727  296           
15 29.12.13 тихо ()   0100 м  переохл. туман [диам. сложн. отлож. 17 мм]  ?/?  
-1.4 -2 96 -1  1025.7  0.5  727  295    -1.4       
18 29.12.13 тихо ()   0100 м  переохл. туман [диам. сложн. отлож. 18 мм]  ?/?  
-2.1 -2.6 96 -2  1025.9  727  295           
21 29.12.13 тихо ()   0100 м  переохл. туман  ?/?  
-1.8 -2.3 96 -2  1025.3  -0.5  727  295           
00 30.12.13 тихо ()   1500 м  дымка{туман} [диам. сложн. отлож. 22 мм]  10/10 120 м 
[St]
-0.5 -1 96 -1  1024.7  -0.3  727  293           
03 30.12.13 тихо ()   2000 м  дымка  10/10 100 м 
[St]
-0.5 -1 96 -1  1024.1  -0.6  726  293  -2.1         
06 30.12.13 100 (В) 2000 м  дымка [диам. сложн. отлож. 0 мм]  10/10 120 м 
[St]
-0.3 -0.8 96 -1  1024.7  0.6  727  293           
09 30.12.13 070 (В) 0700 м  туман  ?/?  
+0.3 -0.2 96 -1  1023.5  -1  726  292           
12 30.12.13 080 (В) 0400 м  туман  ?/?  
+0.3 -0.2 96 -1  1022.8  -1  725  292           
15 30.12.13 080 (В) 1600 м  дымка{туман}  10/10 100 м 
[St]
-0.4 -0.8 97 -2  1023.7  0.7  726  293    +0.6       
18 30.12.13 070 (В) 2000 м  дымка  10/10 100 м 
[St]
-0.5 -0.9 97 -2  1023.5  -0.2  726  293           
21 30.12.13 060 (СВ) 1800 м  дымка{туман}  10/10 100 м 
[St]
-0.3 -0.7 97 -1  1023.4  0.1  726  293           
00 31.12.13 050 (СВ) 2000 м  дымка{туман}  10/10 120 м 
[St]
-0.5 -0.9 97 1023.9  0.5  726  293           
03 31.12.13 320 (СЗ) 10 км  слаб. переохл. морось (гололёд)  10/10 200 м 
[St]
-0.4 -0.8 97 1024.4  0.4  726  293  -0.6    0.0     
06 31.12.13 310 (СЗ) 0100 м  слаб. морось{туман}  ?/?  
-0.2 -0.6 97 -1  1025.6  1.2  727  293           
09 31.12.13 310 (СЗ) 1500 м  слаб. снег{морось}  10/10 180 м 
[Frnb|Ns]
+0.1 -0.4 96 -2  1025.6  727  293           
12 31.12.13 320 (СЗ) 2000 м  в посл. час ливневой снег  10/8 180 м кучево-дожд., средняя 
[Cb cap|Ac und]
+0.3 -0.2 96 -2  1025.8  0.3  727  293           
15 31.12.13 320 (СЗ) 0700 м  туман  ?/?  
-0.2 -0.6 97 -2  1027.3  1.3  728  294    +0.4     
18 31.12.13 330 (СЗ) 0400 м  слаб. снег{туман}  ?/?  
-0.4 -0.8 97 1028.4  729  294           
21 31.12.13 020 (С) 0200 м  слаб. ливневой снег{туман}  ?/?  
-0.4 -0.8 97 1028.8  0.4  729  294           
00 01.01.14 050 (СВ) 0100 м  туман{ливн. осадки}  ?/?  
-0.4 -0.8 97 -1  1029.6  0.7  730  295           
03 01.01.14 070 (В) 0100 м  туман  ?/?  
-0.5 -0.9 97 -2  1030.1  0.5  730  295  -0.5    0.8  равномерный
мокрый или
старый снег
100% 
06 01.01.14 090 (В) 0100 м  туман [диам. гололёда 1 мм]  ?/?  
-0.6 -1 97 -3  1031.4  1.2  731  295  -0.6         
09 01.01.14 100 (В) 4000 м  дымка{туман} [диам. гололёда 1 мм]  10/10 180 м 
[St]
-0.5 -0.9 97 -3  1030.9  -0.4  731  295           
12 01.01.14 100 (В) 10 км  {туман}  10/8 500 м средняя 
[Sc|Ac und]
-0.4 -0.9 96 -3  1030.8  -0.1  731  295           
15 01.01.14 100 (В) 20000 м    10/8 540 м средняя 
[Sc|Ac und]
-0.9 -1.7 94 -5  1031.5  0.5  731  296    -0.4       
18 01.01.14 100 (В) 7{10}  4000 м  дымка  10/10 180 м 
[St]
-1.1 -1.7 96 -5  1030.7  -0.8  731  296           
21 01.01.14 110 (В) 8-11{11}  4000 м  слаб. снег  10/10 120 м 
[St]
-1.4 -1.9 96 -6  1030.1  -0.6  730  296           
00 02.01.14 120 (ЮВ) 6{11}  10 км  слаб. снег{морось}  10/10 180 м 
[Frnb|Ns]
-1.5 -2.2 95 -5  1029.7  -0.6  730  296           
03 02.01.14 120 (ЮВ) 20000 м  в посл. час снег  10/10 200 м 
[Frnb|Ns]
-1.6 -2.5 94 -5  1028.7  -1  729  296  -1.7    0.3     
06 02.01.14 130 (ЮВ) 20000 м  {снег}  10/6 330 м кучево-дожд., средняя 
[Cb calv|Ac und]
-1.7 -3 91 -7  1029.5  0.7  730  296  -1.7         
09 02.01.14 140 (ЮВ) 9-13{13}  20000 м    10/6 270 м кучево-дожд., средняя 
[Cb calv|Ac und]
-1.5 -2.8 91 -6  1028.4  -1  729  296           
Время (UTC), дата Ветер
(°,м/с) 
Видим.   Явления Облачность Т
(°С)
Тd
(°С)
f(%) Тe
(°С)
Pmin
(гПа)
dP
(гПа)
Po
(мм)
O2
(г/м3)
Тmin Tmax R s Состояние
почвы